D8954 Weather Reports


Display with metric or nautical units.
time (UTC)temp
F
wind
direction
speed
MPH
gust
MPH
rain 1hr
in
rain 24hr
in
rain mn
in
humidity
%
barometer
mb
20260507195505 46 279 1.0 2.0 0.00 0.47 0.38 90 1016.6
20260507195005 46 279 2.0 2.0 0.00 0.48 0.38 90 1016.6
20260507194504 47 281 1.0 2.0 0.00 0.49 0.38 90 1016.6
20260507194005 47 281 1.0 2.0 0.00 0.49 0.38 89 1016.5
20260507193504 47 281 1.0 2.0 0.00 0.50 0.38 89 1016.5
20260507193005 47 281 2.0 2.0 0.00 0.50 0.38 89 1016.5
20260507192505 47 281 1.0 1.0 0.00 0.50 0.38 89 1016.5
20260507192004 47 281 0.0 1.0 0.00 0.50 0.38 89 1016.4
20260507191505 48 281 1.0 2.0 0.00 0.50 0.38 89 1016.4
20260507191005 48 300 1.0 3.0 0.00 0.50 0.38 89 1016.3
20260507190505 48 325 1.0 2.0 0.00 0.51 0.38 89 1016.2
20260507190006 49 326 1.0 2.0 0.00 0.52 0.38 88 1016.2
20260507185504 49 327 0.0 1.0 0.00 0.52 0.38 88 1016.2
20260507185005 49 327 0.0 1.0 0.00 0.53 0.38 88 1016.2
20260507184504 49 327 0.0 0.0 0.00 0.54 0.38 88 1016.0
20260507184005 50 327 0.0 0.0 0.00 0.55 0.38 87 1016.0
20260507183005 50 327 0.0 1.0 0.00 0.55 0.38 86 1016.0
20260507182505 50 328 0.0 0.0 0.00 0.55 0.38 87 1015.9
20260507182005 51 328 0.0 1.0 0.00 0.55 0.38 87 1015.9
20260507181505 51 328 0.0 2.0 0.00 0.55 0.38 86 1015.8
20260507181005 51 328 0.0 1.0 0.00 0.55 0.38 85 1015.8
20260507180505 51 328 0.0 0.0 0.00 0.55 0.38 85 1015.8
20260507180006 51 328 0.0 0.0 0.00 0.55 0.38 84 1015.8
20260507175505 51 328 0.0 0.0 0.00 0.55 0.38 84 1015.7
20260507175005 51 328 0.0 0.0 0.00 0.55 0.38 84 1015.7
20260507174505 52 328 0.0 0.0 0.00 0.55 0.38 83 1015.8
20260507174005 52 328 0.0 0.0 0.00 0.55 0.38 81 1015.7
20260507173505 52 328 1.0 2.0 0.00 0.55 0.38 82 1015.7
20260507173005 52 327 0.0 0.0 0.00 0.55 0.38 80 1015.7
20260507172505 52 327 0.0 0.0 0.00 0.55 0.38 81 1015.7
20260507172005 52 327 0.0 0.0 0.00 0.55 0.38 80 1015.7
20260507171505 52 327 0.0 3.0 0.00 0.55 0.38 79 1015.6
20260507171005 52 330 0.0 2.0 0.00 0.55 0.38 80 1015.5
20260507170505 52 329 0.0 2.0 0.00 0.55 0.38 80 1015.6
20260507170006 52 333 2.0 3.0 0.00 0.55 0.38 80 1015.5
20260507165005 52 9 1.0 3.0 0.00 0.55 0.38 80 1015.5
20260507164504 52 236 2.0 3.0 0.00 0.55 0.38 79 1015.5
20260507164004 53 313 1.0 3.0 0.00 0.55 0.38 78 1015.6
20260507163505 53 5 0.0 0.0 0.00 0.55 0.38 79 1015.6
20260507163005 53 34 1.0 3.0 0.00 0.55 0.38 78 1015.5
20260507162505 53 11 3.0 3.0 0.00 0.55 0.38 78 1015.5
20260507162005 53 12 2.0 3.0 0.00 0.55 0.38 77 1015.5
20260507161505 53 352 2.0 3.0 0.00 0.55 0.38 77 1015.4
20260507161005 53 24 1.0 3.0 0.00 0.55 0.38 79 1015.5
20260507155504 53 329 2.0 5.0 0.00 0.55 0.38 78 1015.5
20260507154504 52 272 0.0 3.0 0.00 0.55 0.38 79 1015.4
20260507153004 53 352 2.0 3.0 0.00 0.55 0.38 81 1015.4
20260507152505 52 317 0.0 2.0 0.00 0.55 0.38 79 1015.3
20260507150505 52 321 1.0 2.0 0.00 0.55 0.38 81 1015.3
20260507150006 52 337 2.0 3.0 0.00 0.55 0.38 80 1015.4
20260507145505 52 347 3.0 5.0 0.00 0.55 0.38 81 1015.3
20260507145005 52 323 1.0 5.0 0.00 0.55 0.38 80 1015.3
20260507144504 52 3 3.0 5.0 0.00 0.55 0.38 82 1015.3
20260507144004 52 44 3.0 5.0 0.00 0.55 0.38 80 1015.2
20260507143004 52 23 1.0 5.0 0.00 0.55 0.38 83 1015.2
20260507142505 52 13 1.0 3.0 0.00 0.55 0.38 82 1015.3
20260507142005 52 350 2.0 3.0 0.00 0.55 0.38 83 1015.3
20260507141505 51 319 3.0 7.0 0.00 0.55 0.38 82 1015.3
20260507141006 51 352 3.0 7.0 0.00 0.55 0.38 81 1015.3
20260507140505 52 266 2.0 7.0 0.00 0.55 0.38 82 1015.2
20260507140006 51 304 3.0 6.0 0.00 0.55 0.38 83 1015.2
20260507135505 51 346 2.0 5.0 0.00 0.55 0.38 83 1015.2
20260507135005 51 357 2.0 5.0 0.00 0.55 0.38 82 1015.2
20260507134505 51 21 4.0 7.0 0.00 0.55 0.38 83 1015.1
20260507134008 51 1 2.0 5.0 0.00 0.55 0.38 84 1015.2
20260507133504 50 8 3.0 3.0 0.00 0.55 0.38 84 1015.2
20260507133005 51 349 3.0 3.0 0.00 0.55 0.38 84 1015.1
20260507132505 51 316 3.0 5.0 0.00 0.55 0.38 84 1015.1
20260507132006 50 334 1.0 3.0 0.00 0.55 0.38 85 1015.1
20260507131505 50 13 1.0 5.0 0.00 0.55 0.38 85 1015.0
20260507131005 50 273 2.0 3.0 0.00 0.55 0.38 85 1015.0
20260507130505 50 327 1.0 3.0 0.00 0.55 0.38 86 1014.9
20260507130006 50 244 1.0 3.0 0.00 0.55 0.38 85 1014.9
20260507124505 50 225 2.0 5.0 0.00 0.55 0.38 85 1014.8
20260507123505 50 277 1.0 5.0 0.00 0.55 0.38 88 1014.7
20260507123005 49 205 2.0 3.0 0.00 0.55 0.38 88 1014.7
20260507122505 49 224 1.0 3.0 0.00 0.55 0.38 87 1014.7
20260507122005 48 211 1.0 3.0 0.00 0.55 0.38 88 1014.7
20260507121505 48 211 1.0 3.0 0.00 0.55 0.38 86 1014.6
20260507121004 48 290 3.0 6.0 0.00 0.55 0.38 86 1014.6
20260507120505 48 317 3.0 8.0 0.00 0.55 0.38 86 1014.6
20260507120006 49 305 1.0 3.0 0.00 0.55 0.38 86 1014.5
20260507115505 49 312 3.0 6.0 0.00 0.55 0.38 86 1014.5
20260507115005 48 324 1.0 8.0 0.00 0.55 0.38 86 1014.5
20260507114507 49 303 3.0 6.0 0.00 0.55 0.38 87 1014.5
20260507114005 49 322 0.0 2.0 0.00 0.55 0.38 86 1014.4
20260507113505 49 325 1.0 3.0 0.00 0.55 0.38 87 1014.4
20260507113005 49 296 1.0 3.0 0.00 0.55 0.38 87 1014.4
20260507112006 49 230 1.0 7.0 0.00 0.55 0.38 85 1014.3
20260507111506 50 208 2.0 7.0 0.00 0.55 0.38 85 1014.3
20260507110505 50 210 3.0 5.0 0.00 0.55 0.38 86 1014.2
20260507110006 50 214 2.0 3.0 0.00 0.55 0.38 87 1014.2
20260507105504 49 232 1.0 6.0 0.00 0.55 0.38 86 1014.2
20260507105006 49 258 2.0 8.0 0.00 0.55 0.38 87 1014.1
20260507104506 49 298 1.0 3.0 0.00 0.55 0.38 88 1014.1
20260507104005 49 206 1.0 3.0 0.00 0.55 0.38 88 1014.0
20260507103504 48 204 3.0 5.0 0.00 0.55 0.38 89 1014.0
20260507103005 48 236 1.0 3.0 0.00 0.55 0.38 88 1014.1
20260507102504 48 294 3.0 7.0 0.00 0.55 0.38 88 1014.1
20260507101506 47 313 1.0 5.0 0.00 0.55 0.38 88 1014.0
20260507101005 47 296 2.0 3.0 0.00 0.55 0.38 88 1014.0
20260507095505 47 330 2.0 5.0 0.00 0.55 0.38 88 1013.9
20260507095005 48 318 2.0 7.0 0.00 0.55 0.38 88 1013.8
20260507094504 48 9 2.0 3.0 0.00 0.55 0.38 88 1013.8
20260507094006 48 301 2.0 3.0 0.00 0.55 0.38 88 1013.7
20260507093505 48 302 2.0 7.0 0.00 0.55 0.38 88 1013.6
20260507093005 48 318 1.0 5.0 0.00 0.55 0.38 89 1013.6
20260507092505 48 313 0.0 3.0 0.00 0.55 0.38 89 1013.6
20260507092005 47 340 1.0 5.0 0.00 0.55 0.38 88 1013.5
20260507091505 47 320 1.0 3.0 0.00 0.55 0.38 88 1013.4
20260507091005 47 273 2.0 7.0 0.00 0.55 0.38 89 1013.4
20260507090505 47 319 2.0 3.0 0.00 0.55 0.38 89 1013.2
20260507090006 47 299 3.0 7.0 0.00 0.55 0.38 89 1013.2
20260507085504 47 346 2.0 10.0 0.00 0.55 0.38 89 1013.2
20260507085005 47 340 3.0 7.0 0.00 0.55 0.38 89 1013.2
20260507084505 47 315 1.0 6.0 0.00 0.55 0.38 89 1013.1
20260507084005 47 1 1.0 6.0 0.00 0.55 0.38 89 1013.1
20260507083504 46 339 5.0 9.0 0.00 0.55 0.38 89 1013.0
20260507083005 47 347 3.0 7.0 0.00 0.55 0.38 89 1013.0
20260507082504 47 330 2.0 6.0 0.00 0.55 0.38 89 1013.0
20260507082005 47 6 5.0 10.0 0.00 0.55 0.38 89 1012.9
20260507081505 47 329 2.0 7.0 0.00 0.55 0.38 89 1012.8
20260507081005 47 311 1.0 3.0 0.00 0.55 0.38 89 1012.8
20260507080505 47 317 3.0 5.0 0.00 0.55 0.38 89 1012.7
20260507080005 47 250 1.0 3.0 0.00 0.55 0.38 89 1012.7
20260507075504 47 315 3.0 3.0 0.00 0.55 0.38 89 1012.7
20260507075005 47 353 2.0 3.0 0.01 0.55 0.38 89 1012.6
20260507074505 47 300 3.0 3.0 0.01 0.55 0.38 90 1012.4
20260507074005 47 342 1.0 3.0 0.01 0.55 0.38 90 1012.4
20260507073505 47 333 1.0 7.0 0.01 0.55 0.38 90 1012.4
20260507073005 47 263 1.0 3.0 0.02 0.55 0.38 90 1012.3
20260507072505 47 330 2.0 6.0 0.02 0.55 0.38 90 1012.3
20260507072004 47 340 1.0 3.0 0.02 0.55 0.38 90 1012.2
20260507071504 47 279 0.0 3.0 0.02 0.55 0.38 90 1012.1
20260507071005 46 317 1.0 3.0 0.02 0.55 0.38 90 1012.1
20260507070009 46 313 2.0 7.0 0.04 0.55 0.38 90 1012.0
20260507065005 47 336 1.0 2.0 0.03 0.54 0.37 90 1011.9
20260507064505 47 265 1.0 3.0 0.04 0.54 0.37 90 1011.8
20260507064005 46 274 3.0 7.0 0.04 0.54 0.37 90 1011.9
20260507063504 46 340 1.0 6.0 0.04 0.54 0.37 90 1011.8
20260507063005 46 278 1.0 5.0 0.04 0.54 0.36 90 1011.8
20260507062504 46 321 2.0 3.0 0.04 0.54 0.36 90 1011.8
20260507062005 46 316 2.0 3.0 0.04 0.54 0.36 91 1011.8
20260507061505 46 24 2.0 3.0 0.03 0.53 0.35 90 1011.6
20260507061004 46 355 1.0 2.0 0.03 0.53 0.35 90 1011.6
20260507060504 46 313 1.0 2.0 0.02 0.52 0.35 91 1011.5
20260507055505 46 254 0.0 2.0 0.02 0.51 0.34 91 1011.3
20260507055004 46 254 2.0 3.0 0.02 0.51 0.34 91 1011.2
20260507054005 46 320 0.0 2.0 0.02 0.50 0.33 91 1011.2
20260507052505 46 321 1.0 3.0 0.02 0.50 0.32 90 1011.0
20260507052005 46 6 2.0 5.0 0.02 0.50 0.32 90 1011.0
20260507051504 46 336 2.0 7.0 0.02 0.50 0.32 90 1010.9
20260507051004 46 327 3.0 10.0 0.02 0.50 0.32 90 1010.8
20260507050504 46 346 2.0 3.0 0.02 0.50 0.32 90 1010.7
20260507050006 46 285 1.0 3.0 0.02 0.50 0.32 90 1010.5
20260507045505 46 316 1.0 3.0 0.02 0.49 0.31 90 1010.5
20260507045004 46 236 1.0 3.0 0.02 0.49 0.31 90 1010.5
20260507044505 46 290 0.0 1.0 0.02 0.49 0.31 90 1010.4
20260507044005 46 292 1.0 3.0 0.02 0.49 0.31 90 1010.4
20260507043509 46 265 1.0 3.0 0.02 0.48 0.31 90 1010.3
20260507042504 46 286 1.0 5.0 0.02 0.48 0.31 90 1010.1
20260507042005 46 6 1.0 3.0 0.02 0.48 0.31 90 1010.1
20260507041005 46 196 1.0 2.0 0.02 0.48 0.31 91 1010.0
20260507040504 46 281 1.0 6.0 0.02 0.47 0.30 91 1010.0
20260507040009 46 330 3.0 5.0 0.02 0.47 0.30 90 1010.0
20260507035504 46 337 3.0 6.0 0.02 0.47 0.30 91 1009.9
20260507035005 46 295 2.0 8.0 0.02 0.47 0.30 90 1009.8
20260507034505 46 228 1.0 3.0 0.02 0.47 0.30 91 1009.8
20260507034005 46 223 2.0 8.0 0.02 0.46 0.29 90 1009.7
20260507033505 46 299 2.0 5.0 0.02 0.46 0.29 90 1009.7
20260507033004 47 224 2.0 9.0 0.03 0.46 0.29 90 1009.6
20260507032504 47 300 2.0 5.0 0.04 0.46 0.29 90 1009.6
20260507032004 47 323 1.0 3.0 0.05 0.46 0.29 90 1009.6
20260507031504 47 316 1.0 6.0 0.06 0.46 0.29 90 1009.5
20260507030505 47 330 3.0 6.0 0.06 0.46 0.28 90 1009.4
20260507030005 47 336 3.0 6.0 0.06 0.46 0.28 90 1009.4
20260507025504 47 324 2.0 3.0 0.06 0.46 0.28 90 1009.3
20260507025005 47 277 2.0 3.0 0.06 0.45 0.28 90 1009.3
20260507024005 47 299 1.0 5.0 0.05 0.44 0.27 90 1009.4
20260507023505 47 248 1.0 3.0 0.05 0.44 0.27 90 1009.3
20260507023005 47 264 1.0 3.0 0.04 0.43 0.26 90 1009.3
20260507022504 47 339 2.0 3.0 0.03 0.43 0.25 90 1009.1
20260507022004 47 331 3.0 5.0 0.02 0.42 0.24 90 1009.1
20260507021504 47 278 1.0 3.0 0.02 0.41 0.24 90 1009.0
20260507021005 47 304 2.0 5.0 0.01 0.40 0.23 90 1009.0
20260507020005 48 254 2.0 3.0 0.00 0.39 0.22 90 1008.9
20260507015005 48 318 1.0 3.0 0.01 0.39 0.22 90 1008.9
20260507014504 48 263 2.0 6.0 0.01 0.39 0.22 90 1008.9
20260507014004 48 308 2.0 3.0 0.01 0.39 0.22 90 1008.9
20260507013505 48 247 0.0 2.0 0.01 0.39 0.22 90 1008.8
20260507012505 48 295 2.0 6.0 0.02 0.39 0.22 90 1008.7
20260507012005 48 0 3.0 5.0 0.02 0.39 0.22 90 1008.7
20260507011504 48 322 1.0 5.0 0.02 0.39 0.22 90 1008.6
20260507010505 48 351 4.0 8.0 0.03 0.39 0.22 90 1008.6
20260507010005 48 312 2.0 6.0 0.04 0.39 0.22 90 1008.7
20260507004005 48 262 2.0 5.0 0.04 0.39 0.21 90 1008.6
20260507003504 48 324 2.0 5.0 0.05 0.39 0.21 89 1008.6
20260507003005 48 257 0.0 3.0 0.05 0.39 0.21 90 1008.6
20260507002505 48 302 1.0 3.0 0.05 0.38 0.20 90 1008.6
20260507000505 48 335 3.0 8.0 0.05 0.36 0.19 90 1008.7
20260507000006 49 329 2.0 6.0 0.05 0.35 0.18 90 1008.7
20260506235004 49 313 2.0 6.0 0.06 0.35 0.17 90 1008.7
20260506234504 49 325 0.0 3.0 0.06 0.35 0.17 90 1008.6
20260506234004 49 327 2.0 3.0 0.07 0.35 0.17 90 1008.7
20260506233505 49 23 2.0 3.0 0.08 0.35 0.17 90 1008.6
20260506233005 49 294 1.0 5.0 0.09 0.35 0.17 90 1008.5
20260506232504 49 338 2.0 3.0 0.10 0.34 0.16 90 1008.6
20260506232005 49 314 2.0 3.0 0.11 0.33 0.15 90 1008.5
20260506231505 49 331 1.0 3.0 0.13 0.33 0.15 90 1008.5
20260506231005 49 337 2.0 5.0 0.13 0.32 0.14 90 1008.4
20260506230504 50 301 2.0 3.0 0.13 0.32 0.14 90 1008.3
20260506230005 50 330 3.0 6.0 0.13 0.31 0.13 90 1008.3
20260506224504 50 316 2.0 5.0 0.13 0.29 0.11 90 1008.2
20260506223005 50 284 2.0 6.0 0.12 0.26 0.07 89 1008.1
20260506221504 50 306 1.0 3.0 0.09 0.24 0.02 89 1007.9
20260506221004 51 277 2.0 6.0 0.09 0.24 0.02 89 1007.9
20260506220005 51 307 2.0 3.0 0.09 0.24 0.00 89 1007.8
20260506215504 51 5 2.0 5.0 0.08 0.24 0.24 89 1007.7
20260506215006 51 304 2.0 8.0 0.07 0.24 0.23 89 1007.7
20260506214505 51 343 1.0 5.0 0.07 0.25 0.22 89 1007.6
20260506214005 51 300 3.0 8.0 0.06 0.24 0.21 89 1007.7
20260506213004 52 299 2.0 3.0 0.05 0.23 0.20 89 1007.5
20260506212504 52 334 2.0 3.0 0.05 0.24 0.20 89 1007.5
20260506211504 52 309 2.0 3.0 0.04 0.23 0.19 89 1007.4
20260506211004 52 260 1.0 3.0 0.03 0.22 0.18 89 1007.3
20260506210504 52 252 0.0 2.0 0.02 0.20 0.17 89 1007.3
20260506210005 52 259 0.0 2.0 0.01 0.20 0.16 89 1007.2
20260506205504 52 259 1.0 2.0 0.01 0.20 0.16 89 1007.3
20260506205003 52 283 1.0 3.0 0.02 0.20 0.16 89 1007.3
20260506203504 53 229 1.0 2.0 0.02 0.19 0.15 89 1007.2
20260506203004 53 230 1.0 3.0 0.03 0.19 0.15 89 1007.1
20260506202504 53 228 0.0 2.0 0.03 0.19 0.15 89 1007.1
20260506202004 53 228 0.0 2.0 0.03 0.19 0.15 89 1007.1
20260506201004 53 228 0.0 1.0 0.03 0.19 0.15 89 1007.0
20260506200504 53 228 0.0 3.0 0.04 0.19 0.15 89 1007.0
20260506200005 53 211 1.0 2.0 0.05 0.19 0.15 89 1007.0